GFSNW_prec_precacc_132.txt.gz
Total_Precipitation_Accumulation
1.53 1.30 1.10 1.08 1.08 1.27 1.86 2.21 1.67 0.75 0.58 1.37 1.03 0.40 0.07 0.02 0.03 0.10 0.24 0.27 0.43 0.68 0.49 0.55 0.63 0.41 0.40 0.13 0.03 0.04 0.11 0.84 0.68 0.26 0.12 0.18 0.27 0.23 0.31 0.64 0.50 0.51 1.25 1.79
2.02 1.69 1.46 1.27 1.24 1.33 2.19 2.81 1.66 1.48 0.97 0.88 0.48 0.19 0.05 0.02 0.01 0.03 0.16 0.23 0.55 0.68 0.81 0.99 1.13 0.58 0.19 0.05 0.03 0.14 0.23 0.74 0.39 0.45 0.61 0.31 0.20 0.25 0.40 0.53 0.80 1.21 1.49 1.60
1.88 1.97 2.03 2.07 1.81 1.72 2.47 3.00 2.33 2.66 2.18 0.81 0.20 0.18 0.09 0.03 0.00 0.01 0.08 0.30 0.59 0.65 0.82 0.86 0.97 0.51 0.10 0.02 0.01 0.02 0.25 0.30 0.38 0.66 0.85 0.72 0.42 0.33 0.35 0.60 0.97 0.96 1.12 1.17
1.52 1.66 2.02 2.00 1.82 1.93 3.59 3.80 1.45 0.97 1.16 0.68 0.26 0.26 0.27 0.16 0.13 0.10 0.20 0.52 0.40 0.48 0.67 0.52 0.51 0.48 0.15 0.07 0.02 0.04 0.10 0.37 0.71 0.55 0.66 0.54 0.97 1.00 1.03 0.78 0.68 0.81 0.92 0.53
1.31 1.36 1.55 1.87 1.95 2.24 4.50 3.72 0.68 0.27 0.19 0.24 0.43 0.42 0.27 0.13 0.20 0.38 0.34 0.11 0.06 0.10 0.12 0.34 0.32 0.37 0.29 0.24 0.09 0.08 0.08 0.26 0.69 1.32 0.84 0.34 0.79 1.00 0.86 0.58 0.68 0.72 0.46 0.48
1.27 1.21 1.26 1.52 1.99 3.42 5.47 2.92 0.36 0.42 0.37 0.19 0.43 0.51 0.29 0.21 0.20 0.15 0.07 0.03 0.04 0.03 0.01 0.03 0.13 0.09 0.06 0.12 0.15 0.12 0.11 0.16 0.22 0.54 0.44 0.17 0.51 0.82 0.48 0.28 0.24 0.25 0.24 0.33
1.18 1.31 1.24 1.27 1.55 3.08 3.53 1.78 0.35 0.81 0.80 0.34 0.12 0.06 0.10 0.12 0.08 0.13 0.06 0.05 0.05 0.04 0.02 0.08 0.23 0.13 0.05 0.15 0.12 0.19 0.20 0.19 0.22 0.33 0.22 0.59 0.89 0.38 0.23 0.21 0.30 0.16 0.16 0.23
1.12 1.22 1.18 1.08 1.17 1.64 2.60 1.67 0.68 0.68 0.63 0.23 0.15 0.08 0.09 0.12 0.12 0.08 0.08 0.05 0.07 0.12 0.11 0.20 0.26 0.22 0.17 0.12 0.22 0.22 0.19 0.26 0.48 0.36 0.30 0.42 0.25 0.07 0.07 0.17 0.20 0.15 0.23 0.49
0.96 1.10 1.10 1.06 0.97 1.25 1.93 1.81 1.13 1.13 0.92 0.36 0.07 0.08 0.07 0.10 0.18 0.23 0.13 0.15 0.20 0.18 0.32 0.37 0.28 0.25 0.18 0.17 0.14 0.23 0.36 0.31 0.47 0.42 0.38 0.37 0.18 0.02 0.00 0.03 0.18 0.08 0.17 0.64
0.82 0.86 0.96 1.01 0.95 1.20 1.57 1.71 1.24 2.17 1.73 0.39 0.17 0.15 0.09 0.07 0.15 0.34 0.25 0.27 0.38 0.41 0.40 0.34 0.13 0.13 0.11 0.26 0.24 0.16 0.29 0.47 0.54 0.43 0.46 0.17 0.02 0.04 0.03 0.26 0.38 0.10 0.07 0.22
0.71 0.60 0.73 0.95 1.12 1.31 1.80 1.60 0.96 1.76 1.72 0.58 0.32 0.28 0.24 0.10 0.21 0.46 0.33 0.69 0.52 0.64 0.42 0.23 0.14 0.14 0.14 0.21 0.20 0.19 0.18 0.41 0.43 0.50 0.51 0.29 0.05 0.16 0.32 0.33 0.15 0.09 0.07 0.05
0.66 0.53 0.57 0.75 1.17 1.62 2.24 2.26 1.04 1.27 1.72 1.08 0.53 0.30 0.25 0.14 0.16 0.43 0.54 0.40 0.46 0.36 0.48 0.29 0.23 0.22 0.18 0.13 0.44 0.23 0.37 0.15 0.19 0.22 0.26 0.31 0.24 0.27 0.27 0.14 0.18 0.16 0.10 0.15
0.64 0.64 0.70 0.76 0.99 1.53 2.91 2.33 1.06 3.00 2.83 1.30 0.53 0.36 0.20 0.20 0.10 0.20 0.48 0.40 0.48 0.61 0.56 0.61 0.48 0.32 0.15 0.15 0.23 0.33 0.58 0.47 0.40 0.53 0.64 0.39 0.48 0.36 0.13 0.11 0.21 0.22 0.16 0.11
0.72 0.77 0.86 0.83 0.98 1.49 2.79 2.51 1.47 2.83 2.33 1.66 0.65 0.32 0.34 0.29 0.20 0.11 0.16 0.23 0.28 0.45 0.68 0.56 0.49 0.30 0.12 0.12 0.23 0.30 0.30 0.57 0.74 0.94 0.81 0.63 0.72 0.73 0.57 0.40 0.18 0.15 0.17 0.14
0.78 0.84 0.89 1.08 1.23 1.88 2.57 2.02 1.52 1.74 1.90 1.67 0.97 0.34 0.33 0.34 0.35 0.21 0.19 0.26 0.32 0.49 0.83 0.79 0.41 0.26 0.22 0.21 0.47 0.40 0.18 0.44 0.83 1.32 1.04 0.91 0.90 0.50 0.36 0.31 0.27 0.15 0.07 0.04
0.74 0.86 1.11 1.30 1.72 2.67 3.57 4.94 2.82 1.38 1.81 2.11 1.43 0.74 0.33 0.38 0.47 0.39 0.25 0.28 0.44 0.62 0.70 0.68 0.52 0.34 0.71 0.72 0.68 0.36 0.17 0.22 0.34 0.60 0.92 0.88 0.73 0.47 0.26 0.17 0.09 0.03 0.01 0.01
0.92 1.16 1.30 1.62 2.34 2.20 1.99 2.37 1.48 1.05 1.91 2.61 1.61 1.24 0.47 0.42 0.63 0.69 0.55 0.54 0.67 0.67 0.75 0.50 0.33 0.38 0.77 1.08 0.82 0.46 0.30 0.31 0.39 0.40 0.47 0.37 0.23 0.15 0.07 0.02 0.01 0.02 0.01 0.01
1.25 1.53 1.65 2.33 2.80 2.46 1.75 0.82 0.77 0.94 1.96 1.56 1.30 1.37 1.20 0.77 0.81 1.05 0.85 1.02 0.93 0.97 0.78 0.47 0.41 0.50 0.70 0.81 0.28 0.07 0.11 0.15 0.19 0.22 0.19 0.20 0.14 0.05 0.03 0.02 0.03 0.04 0.07 0.13
1.70 2.01 3.10 4.40 4.01 3.41 1.68 1.15 1.09 1.22 1.75 1.17 0.64 1.08 1.64 1.34 1.00 1.03 1.23 1.03 1.27 0.85 0.59 0.38 0.68 0.72 0.89 0.48 0.08 0.03 0.02 0.02 0.02 0.03 0.05 0.09 0.09 0.07 0.04 0.04 0.06 0.13 0.29 0.25
2.57 3.58 4.84 5.42 2.89 1.57 1.97 3.26 2.80 2.40 1.57 0.78 0.49 0.65 1.54 1.77 1.52 0.94 1.34 1.34 1.03 1.03 0.51 0.56 0.64 0.74 0.51 0.16 0.05 0.02 0.01 0.00 0.01 0.01 0.02 0.04 0.10 0.13 0.15 0.22 0.29 0.31 0.27 0.17
3.78 4.30 4.04 3.02 2.16 1.82 2.65 2.95 2.19 1.51 0.76 0.38 0.43 0.51 1.04 1.46 1.51 1.12 1.09 1.36 1.07 0.78 0.80 0.90 0.91 0.53 0.33 0.19 0.11 0.04 0.01 0.01 0.01 0.02 0.03 0.07 0.15 0.31 0.32 0.22 0.16 0.13 0.12 0.14
2.84 2.85 3.00 3.57 3.16 2.61 2.52 2.04 1.25 0.56 0.42 0.27 0.31 0.37 0.62 1.40 1.70 1.58 1.45 1.49 1.31 0.83 0.80 1.04 0.85 0.53 0.18 0.11 0.10 0.07 0.05 0.05 0.06 0.12 0.19 0.23 0.26 0.23 0.18 0.15 0.15 0.17 0.18 0.21
2.42 2.48 2.97 3.33 2.90 2.42 1.70 1.04 0.58 0.38 0.49 0.22 0.33 0.39 0.62 0.95 1.52 2.02 1.31 1.51 1.69 1.05 1.04 0.88 0.59 0.40 0.28 0.31 0.30 0.33 0.32 0.29 0.27 0.21 0.17 0.15 0.13 0.10 0.11 0.15 0.21 0.24 0.32 0.45
2.26 2.45 2.49 2.22 1.86 1.33 0.96 0.59 0.38 0.35 0.30 0.27 0.60 0.36 0.54 0.76 1.16 1.73 1.50 1.52 1.27 1.48 0.89 0.65 0.65 0.74 0.71 0.47 0.36 0.33 0.41 0.43 0.43 0.44 0.41 0.41 0.41 0.48 0.55 0.62 0.73 0.68 0.88 1.13
1.48 1.44 1.39 1.13 1.22 1.00 0.84 0.72 0.59 0.54 0.48 0.59 0.82 0.86 0.88 0.99 1.31 1.17 0.96 0.92 0.81 0.66 0.73 0.72 0.72 0.77 0.60 0.49 0.51 0.54 0.60 0.62 0.61 0.62 0.62 0.72 0.75 0.68 0.84 0.96 0.93 0.78 0.79 0.80
0.80 0.85 1.06 1.01 0.90 0.88 0.81 0.82 0.83 0.79 0.82 0.84 0.94 0.94 0.79 0.87 0.76 0.59 0.55 0.54 0.62 0.75 0.62 0.50 0.49 0.53 0.58 0.64 0.67 0.78 0.78 0.68 0.63 0.64 0.60 0.60 0.62 0.57 0.63 0.68 0.65 0.67 0.55 0.56
0.56 0.87 0.96 0.92 0.81 0.85 0.88 0.82 0.80 0.80 0.70 0.68 0.58 0.51 0.52 0.47 0.39 0.52 0.55 0.70 0.70 0.59 0.65 0.71 0.67 0.70 0.76 0.74 0.78 0.82 0.78 0.70 0.64 0.60 0.58 0.61 0.61 0.45 0.31 0.40 0.57 0.45 0.42 0.37

GFSNW_prec_precacc_135.txt.gz
Total_Precipitation_Accumulation
1.54 1.31 1.10 1.08 1.08 1.28 1.93 2.29 1.72 0.78 0.64 1.54 1.17 0.44 0.07 0.02 0.03 0.10 0.25 0.28 0.43 0.68 0.49 0.55 0.63 0.41 0.40 0.13 0.03 0.04 0.11 0.84 0.68 0.26 0.12 0.18 0.27 0.23 0.31 0.67 0.51 0.52 1.26 1.81
2.05 1.70 1.46 1.27 1.25 1.35 2.20 2.89 1.78 1.62 0.99 0.93 0.54 0.20 0.05 0.02 0.01 0.03 0.16 0.23 0.55 0.68 0.81 0.99 1.13 0.58 0.19 0.05 0.03 0.14 0.23 0.74 0.39 0.45 0.61 0.31 0.20 0.25 0.40 0.54 0.81 1.22 1.50 1.61
1.90 1.98 2.04 2.16 2.14 2.00 2.52 3.04 2.53 3.12 2.50 0.89 0.20 0.19 0.10 0.03 0.01 0.01 0.08 0.30 0.59 0.65 0.82 0.86 0.97 0.51 0.10 0.02 0.01 0.02 0.25 0.31 0.39 0.71 0.89 0.73 0.42 0.33 0.35 0.60 0.98 0.97 1.12 1.17
1.53 1.66 2.02 2.05 2.08 2.32 3.94 3.98 1.54 1.12 1.38 0.92 0.38 0.28 0.27 0.16 0.14 0.10 0.20 0.52 0.40 0.48 0.67 0.52 0.51 0.48 0.15 0.07 0.02 0.04 0.11 0.38 0.71 0.55 0.66 0.54 0.97 1.00 1.03 0.78 0.68 0.82 0.93 0.53
1.33 1.36 1.56 1.92 2.14 2.52 4.86 4.09 0.81 0.30 0.21 0.29 0.54 0.46 0.28 0.14 0.21 0.39 0.34 0.11 0.06 0.10 0.12 0.34 0.32 0.37 0.29 0.24 0.09 0.08 0.08 0.26 0.69 1.32 0.84 0.34 0.79 1.00 0.86 0.58 0.68 0.72 0.46 0.48
1.29 1.22 1.28 1.57 2.13 3.65 5.76 3.09 0.45 0.45 0.39 0.21 0.49 0.55 0.29 0.22 0.20 0.15 0.07 0.03 0.04 0.03 0.01 0.03 0.13 0.09 0.06 0.12 0.15 0.12 0.11 0.16 0.22 0.54 0.44 0.18 0.52 0.82 0.48 0.28 0.24 0.25 0.24 0.33
1.24 1.34 1.29 1.34 1.70 3.28 3.78 1.88 0.39 0.84 0.81 0.34 0.13 0.07 0.10 0.13 0.08 0.13 0.06 0.05 0.05 0.04 0.02 0.08 0.23 0.13 0.05 0.16 0.13 0.21 0.21 0.20 0.24 0.35 0.23 0.61 0.89 0.38 0.23 0.21 0.30 0.16 0.16 0.23
1.15 1.29 1.22 1.14 1.25 1.76 2.77 1.84 0.73 0.70 0.64 0.24 0.16 0.09 0.10 0.13 0.12 0.08 0.08 0.06 0.07 0.12 0.11 0.20 0.26 0.22 0.17 0.13 0.24 0.24 0.21 0.30 0.50 0.37 0.32 0.43 0.25 0.07 0.07 0.17 0.20 0.15 0.23 0.49
0.97 1.13 1.15 1.09 0.99 1.31 2.04 1.93 1.22 1.21 1.00 0.42 0.08 0.09 0.09 0.13 0.19 0.24 0.17 0.15 0.20 0.18 0.32 0.37 0.28 0.25 0.18 0.17 0.14 0.23 0.36 0.31 0.47 0.42 0.41 0.40 0.19 0.02 0.00 0.03 0.18 0.08 0.17 0.64
0.83 0.90 1.01 1.03 0.98 1.26 1.62 1.75 1.26 2.21 1.79 0.40 0.19 0.19 0.16 0.10 0.17 0.38 0.27 0.27 0.38 0.41 0.40 0.34 0.13 0.13 0.11 0.26 0.24 0.16 0.29 0.47 0.54 0.43 0.47 0.19 0.02 0.04 0.03 0.26 0.38 0.10 0.07 0.22
0.74 0.66 0.79 0.99 1.18 1.36 1.82 1.64 0.99 1.82 1.76 0.60 0.33 0.29 0.25 0.12 0.22 0.47 0.34 0.69 0.52 0.64 0.42 0.23 0.14 0.14 0.14 0.22 0.20 0.19 0.18 0.41 0.43 0.51 0.52 0.31 0.05 0.16 0.32 0.33 0.15 0.09 0.07 0.05
0.68 0.58 0.61 0.79 1.20 1.63 2.27 2.36 1.14 1.34 1.73 1.13 0.54 0.30 0.26 0.14 0.16 0.43 0.54 0.40 0.46 0.36 0.48 0.29 0.23 0.22 0.18 0.13 0.44 0.23 0.37 0.15 0.20 0.22 0.26 0.31 0.24 0.27 0.27 0.14 0.18 0.16 0.10 0.15
0.65 0.67 0.72 0.77 0.99 1.53 2.97 2.48 1.15 3.02 2.83 1.32 0.55 0.37 0.20 0.20 0.10 0.20 0.48 0.40 0.48 0.61 0.56 0.61 0.48 0.32 0.15 0.15 0.23 0.33 0.58 0.47 0.40 0.53 0.64 0.39 0.48 0.36 0.13 0.11 0.21 0.22 0.16 0.11
0.74 0.79 0.86 0.83 0.98 1.49 2.81 2.58 1.50 2.83 2.33 1.68 0.67 0.32 0.34 0.29 0.20 0.11 0.16 0.23 0.28 0.45 0.68 0.56 0.49 0.30 0.12 0.12 0.24 0.30 0.30 0.57 0.74 0.94 0.81 0.63 0.72 0.73 0.57 0.40 0.18 0.15 0.17 0.14
0.79 0.86 0.89 1.08 1.24 1.93 2.62 2.03 1.53 1.74 1.90 1.67 0.97 0.34 0.33 0.34 0.35 0.21 0.19 0.26 0.32 0.49 0.83 0.79 0.41 0.26 0.22 0.21 0.47 0.40 0.18 0.44 0.83 1.32 1.04 0.91 0.90 0.50 0.36 0.31 0.27 0.15 0.07 0.04
0.74 0.86 1.11 1.30 1.72 2.70 3.58 4.94 2.82 1.38 1.81 2.11 1.43 0.74 0.33 0.38 0.47 0.39 0.25 0.28 0.44 0.62 0.70 0.68 0.52 0.34 0.72 0.72 0.68 0.36 0.17 0.22 0.34 0.60 0.92 0.88 0.73 0.47 0.26 0.17 0.09 0.03 0.01 0.01
0.92 1.16 1.30 1.62 2.34 2.20 1.99 2.37 1.48 1.05 1.91 2.61 1.61 1.24 0.47 0.42 0.63 0.69 0.55 0.54 0.67 0.67 0.75 0.50 0.33 0.38 0.77 1.08 0.82 0.46 0.30 0.31 0.39 0.40 0.47 0.37 0.23 0.15 0.07 0.02 0.01 0.02 0.01 0.01
1.25 1.53 1.65 2.33 2.80 2.46 1.75 0.82 0.77 0.94 1.97 1.56 1.31 1.38 1.20 0.77 0.81 1.05 0.85 1.02 0.93 0.97 0.78 0.47 0.41 0.50 0.70 0.81 0.28 0.07 0.11 0.15 0.19 0.22 0.19 0.20 0.14 0.05 0.03 0.02 0.03 0.04 0.07 0.13
1.70 2.01 3.10 4.40 4.01 3.41 1.68 1.15 1.09 1.22 1.75 1.18 0.64 1.09 1.65 1.34 1.00 1.03 1.23 1.03 1.27 0.85 0.59 0.38 0.68 0.72 0.89 0.48 0.08 0.03 0.02 0.02 0.02 0.03 0.05 0.09 0.09 0.07 0.04 0.04 0.06 0.13 0.29 0.25
2.57 3.58 4.84 5.42 2.89 1.57 1.97 3.26 2.80 2.40 1.57 0.78 0.49 0.65 1.54 1.77 1.52 0.94 1.34 1.34 1.03 1.03 0.51 0.56 0.64 0.74 0.51 0.16 0.05 0.02 0.01 0.00 0.01 0.01 0.02 0.04 0.10 0.13 0.15 0.22 0.29 0.31 0.27 0.17
3.78 4.30 4.04 3.02 2.16 1.82 2.65 2.95 2.19 1.51 0.76 0.38 0.44 0.51 1.04 1.46 1.51 1.12 1.09 1.36 1.07 0.78 0.80 0.90 0.91 0.53 0.33 0.19 0.11 0.04 0.01 0.01 0.01 0.02 0.03 0.07 0.15 0.31 0.32 0.22 0.16 0.13 0.12 0.14
2.84 2.85 3.00 3.57 3.16 2.61 2.52 2.04 1.25 0.56 0.42 0.27 0.31 0.37 0.62 1.40 1.70 1.58 1.45 1.49 1.31 0.84 0.80 1.04 0.85 0.53 0.18 0.11 0.10 0.07 0.05 0.05 0.06 0.12 0.19 0.23 0.26 0.23 0.18 0.15 0.15 0.17 0.18 0.21
2.42 2.49 2.97 3.33 2.90 2.42 1.70 1.04 0.58 0.38 0.49 0.22 0.33 0.39 0.62 0.95 1.52 2.02 1.31 1.51 1.69 1.05 1.04 0.88 0.59 0.40 0.28 0.31 0.30 0.33 0.32 0.29 0.27 0.21 0.17 0.15 0.13 0.10 0.11 0.15 0.21 0.24 0.32 0.45
2.26 2.45 2.49 2.22 1.86 1.33 0.96 0.59 0.38 0.35 0.30 0.27 0.60 0.36 0.54 0.76 1.16 1.73 1.50 1.52 1.27 1.48 0.89 0.65 0.65 0.74 0.71 0.47 0.36 0.33 0.41 0.43 0.43 0.44 0.41 0.41 0.41 0.48 0.55 0.62 0.73 0.68 0.88 1.13
1.48 1.44 1.39 1.13 1.22 1.00 0.84 0.72 0.59 0.54 0.49 0.59 0.83 0.86 0.88 0.99 1.31 1.17 0.96 0.92 0.81 0.66 0.74 0.72 0.72 0.77 0.60 0.49 0.51 0.54 0.60 0.62 0.61 0.62 0.62 0.72 0.75 0.68 0.84 0.96 0.93 0.78 0.79 0.80
0.80 0.85 1.07 1.01 0.90 0.88 0.81 0.82 0.83 0.79 0.83 0.84 0.94 0.94 0.79 0.87 0.76 0.59 0.55 0.54 0.62 0.75 0.62 0.50 0.49 0.53 0.58 0.64 0.67 0.78 0.78 0.68 0.63 0.64 0.60 0.60 0.62 0.57 0.63 0.68 0.65 0.67 0.55 0.56
0.57 0.87 0.97 0.93 0.82 0.85 0.88 0.82 0.80 0.80 0.71 0.69 0.58 0.51 0.52 0.47 0.39 0.52 0.55 0.70 0.70 0.59 0.65 0.71 0.67 0.70 0.76 0.74 0.78 0.82 0.78 0.70 0.64 0.60 0.58 0.61 0.61 0.45 0.31 0.40 0.57 0.45 0.42 0.37

GFSNW_prec_precacc_138.txt.gz
Total_Precipitation_Accumulation
1.54 1.31 1.11 1.09 1.09 1.29 1.95 2.34 1.74 0.78 0.65 1.66 1.26 0.46 0.07 0.02 0.03 0.10 0.25 0.28 0.43 0.68 0.49 0.55 0.63 0.41 0.40 0.13 0.03 0.04 0.11 0.84 0.68 0.26 0.12 0.18 0.27 0.23 0.31 0.67 0.51 0.52 1.27 1.82
2.05 1.71 1.46 1.27 1.25 1.35 2.21 2.92 1.79 1.68 1.00 0.95 0.57 0.21 0.05 0.02 0.01 0.03 0.16 0.23 0.55 0.68 0.81 0.99 1.13 0.58 0.19 0.05 0.03 0.14 0.24 0.75 0.39 0.45 0.61 0.31 0.22 0.26 0.40 0.54 0.82 1.23 1.51 1.62
1.90 1.98 2.04 2.16 2.15 2.06 2.54 3.05 2.55 3.28 2.71 0.92 0.21 0.19 0.10 0.03 0.01 0.01 0.08 0.30 0.59 0.65 0.82 0.86 0.97 0.51 0.10 0.02 0.01 0.03 0.26 0.31 0.39 0.72 0.90 0.73 0.43 0.33 0.35 0.60 0.98 0.97 1.12 1.17
1.53 1.66 2.02 2.05 2.09 2.43 3.98 3.99 1.55 1.16 1.51 1.01 0.42 0.29 0.28 0.16 0.14 0.11 0.21 0.52 0.40 0.48 0.67 0.52 0.51 0.48 0.16 0.07 0.02 0.04 0.11 0.39 0.73 0.57 0.67 0.56 1.00 1.01 1.03 0.78 0.68 0.82 0.93 0.53
1.33 1.37 1.56 1.92 2.15 2.56 4.90 4.20 0.92 0.36 0.23 0.30 0.59 0.51 0.31 0.14 0.21 0.39 0.35 0.11 0.06 0.10 0.12 0.34 0.32 0.37 0.30 0.25 0.11 0.08 0.08 0.27 0.70 1.36 0.85 0.34 0.80 1.01 0.86 0.58 0.68 0.72 0.46 0.49
1.29 1.22 1.28 1.58 2.15 3.70 5.91 3.33 0.61 0.59 0.55 0.33 0.63 0.64 0.31 0.22 0.21 0.16 0.07 0.03 0.04 0.03 0.01 0.03 0.13 0.09 0.06 0.12 0.16 0.12 0.12 0.16 0.23 0.54 0.44 0.18 0.52 0.82 0.48 0.28 0.24 0.25 0.24 0.33
1.25 1.34 1.29 1.34 1.71 3.33 3.89 2.08 0.51 1.00 1.00 0.47 0.21 0.11 0.11 0.14 0.09 0.14 0.06 0.05 0.05 0.04 0.02 0.08 0.23 0.13 0.05 0.17 0.14 0.21 0.22 0.20 0.25 0.35 0.24 0.63 0.89 0.38 0.23 0.21 0.30 0.16 0.16 0.23
1.16 1.33 1.23 1.14 1.26 1.81 2.85 1.95 0.78 0.75 0.69 0.30 0.21 0.14 0.12 0.14 0.13 0.10 0.08 0.06 0.07 0.12 0.11 0.20 0.27 0.23 0.19 0.14 0.27 0.26 0.23 0.32 0.52 0.40 0.33 0.44 0.25 0.07 0.07 0.17 0.20 0.15 0.23 0.49
0.98 1.16 1.19 1.09 1.00 1.33 2.09 2.00 1.26 1.22 1.01 0.43 0.09 0.10 0.10 0.13 0.19 0.27 0.19 0.16 0.20 0.18 0.32 0.37 0.29 0.26 0.19 0.17 0.15 0.28 0.40 0.34 0.50 0.43 0.43 0.41 0.19 0.02 0.00 0.03 0.18 0.08 0.17 0.64
0.84 0.91 1.03 1.04 0.98 1.29 1.64 1.77 1.30 2.25 1.81 0.41 0.20 0.20 0.17 0.10 0.17 0.39 0.28 0.27 0.39 0.41 0.40 0.35 0.14 0.13 0.11 0.26 0.24 0.17 0.32 0.49 0.55 0.43 0.47 0.19 0.02 0.04 0.03 0.26 0.38 0.10 0.07 0.22
0.75 0.67 0.80 1.00 1.22 1.43 1.84 1.64 1.00 1.86 1.79 0.61 0.35 0.30 0.26 0.13 0.23 0.47 0.35 0.72 0.55 0.64 0.42 0.24 0.14 0.14 0.14 0.22 0.20 0.19 0.19 0.41 0.43 0.51 0.52 0.31 0.05 0.16 0.32 0.33 0.15 0.09 0.07 0.05
0.69 0.58 0.62 0.82 1.26 1.69 2.30 2.39 1.17 1.41 1.77 1.14 0.55 0.31 0.26 0.14 0.17 0.44 0.55 0.41 0.46 0.36 0.48 0.29 0.23 0.23 0.18 0.14 0.44 0.24 0.37 0.15 0.20 0.22 0.26 0.31 0.24 0.27 0.27 0.14 0.18 0.16 0.10 0.15
0.65 0.68 0.73 0.83 1.06 1.58 3.07 2.62 1.31 3.11 2.85 1.39 0.61 0.40 0.21 0.20 0.11 0.21 0.50 0.41 0.48 0.61 0.56 0.62 0.48 0.33 0.15 0.16 0.23 0.33 0.58 0.47 0.40 0.53 0.64 0.39 0.48 0.36 0.13 0.11 0.21 0.22 0.16 0.11
0.74 0.83 0.91 0.87 1.04 1.58 2.95 2.73 1.57 2.84 2.33 1.76 0.76 0.32 0.34 0.29 0.20 0.11 0.16 0.23 0.28 0.45 0.69 0.57 0.49 0.30 0.12 0.12 0.24 0.30 0.30 0.57 0.74 0.94 0.81 0.63 0.72 0.73 0.57 0.40 0.18 0.15 0.17 0.14
0.80 0.92 0.90 1.13 1.31 2.01 2.73 2.10 1.53 1.74 1.90 1.70 0.99 0.34 0.33 0.34 0.35 0.21 0.19 0.26 0.32 0.49 0.83 0.79 0.41 0.26 0.22 0.21 0.47 0.40 0.18 0.44 0.83 1.32 1.04 0.91 0.90 0.50 0.36 0.31 0.27 0.15 0.07 0.04
0.78 0.87 1.15 1.39 1.83 2.81 3.67 4.96 2.82 1.38 1.81 2.11 1.43 0.74 0.33 0.38 0.47 0.39 0.25 0.28 0.44 0.62 0.70 0.68 0.52 0.34 0.72 0.72 0.68 0.36 0.17 0.22 0.34 0.60 0.92 0.88 0.73 0.47 0.26 0.17 0.09 0.03 0.01 0.01
0.94 1.17 1.33 1.66 2.37 2.21 1.99 2.37 1.48 1.05 1.91 2.61 1.61 1.24 0.47 0.42 0.63 0.69 0.55 0.54 0.67 0.67 0.75 0.50 0.33 0.38 0.77 1.08 0.82 0.46 0.30 0.31 0.39 0.40 0.47 0.37 0.23 0.15 0.07 0.02 0.01 0.02 0.01 0.01
1.26 1.53 1.66 2.34 2.80 2.46 1.75 0.82 0.77 0.94 1.97 1.56 1.31 1.38 1.20 0.77 0.81 1.05 0.85 1.02 0.93 0.97 0.78 0.47 0.41 0.50 0.70 0.81 0.28 0.07 0.11 0.15 0.19 0.22 0.19 0.20 0.14 0.05 0.03 0.02 0.03 0.04 0.07 0.13
1.70 2.01 3.10 4.40 4.01 3.41 1.68 1.15 1.09 1.22 1.75 1.18 0.64 1.09 1.65 1.34 1.00 1.03 1.23 1.03 1.27 0.85 0.59 0.38 0.68 0.72 0.89 0.48 0.08 0.03 0.02 0.02 0.02 0.03 0.05 0.09 0.09 0.07 0.04 0.04 0.06 0.13 0.29 0.25
2.57 3.58 4.84 5.42 2.89 1.57 1.97 3.26 2.80 2.40 1.57 0.78 0.49 0.65 1.54 1.77 1.52 0.94 1.34 1.34 1.03 1.03 0.51 0.56 0.64 0.74 0.51 0.16 0.05 0.02 0.01 0.00 0.01 0.01 0.02 0.04 0.10 0.13 0.15 0.22 0.29 0.31 0.27 0.17
3.78 4.30 4.04 3.02 2.16 1.82 2.65 2.95 2.19 1.51 0.76 0.38 0.44 0.51 1.04 1.46 1.51 1.12 1.09 1.36 1.07 0.78 0.80 0.90 0.91 0.53 0.33 0.19 0.11 0.04 0.01 0.01 0.01 0.02 0.03 0.07 0.15 0.31 0.32 0.22 0.16 0.13 0.12 0.14
2.84 2.85 3.00 3.57 3.16 2.61 2.52 2.04 1.25 0.56 0.42 0.27 0.31 0.37 0.62 1.40 1.70 1.58 1.45 1.49 1.31 0.84 0.80 1.04 0.85 0.53 0.18 0.11 0.10 0.07 0.05 0.05 0.06 0.12 0.19 0.23 0.26 0.23 0.18 0.15 0.15 0.17 0.18 0.21
2.42 2.49 2.97 3.33 2.90 2.42 1.70 1.04 0.58 0.38 0.49 0.22 0.33 0.39 0.62 0.95 1.52 2.02 1.31 1.51 1.69 1.05 1.04 0.88 0.59 0.40 0.28 0.31 0.30 0.33 0.32 0.29 0.27 0.21 0.17 0.15 0.13 0.10 0.11 0.15 0.21 0.24 0.32 0.45
2.26 2.45 2.49 2.22 1.86 1.33 0.96 0.59 0.38 0.35 0.30 0.27 0.60 0.36 0.54 0.76 1.16 1.73 1.50 1.52 1.27 1.48 0.89 0.65 0.65 0.74 0.71 0.47 0.36 0.33 0.41 0.43 0.43 0.44 0.41 0.41 0.41 0.48 0.55 0.62 0.73 0.68 0.88 1.13
1.48 1.44 1.39 1.13 1.22 1.00 0.84 0.72 0.59 0.54 0.49 0.59 0.83 0.86 0.88 0.99 1.31 1.17 0.96 0.92 0.81 0.66 0.74 0.72 0.72 0.77 0.60 0.49 0.51 0.54 0.60 0.62 0.61 0.62 0.62 0.72 0.75 0.68 0.84 0.96 0.93 0.78 0.79 0.80
0.80 0.85 1.07 1.01 0.90 0.88 0.81 0.82 0.83 0.79 0.83 0.84 0.94 0.94 0.79 0.87 0.76 0.59 0.55 0.54 0.62 0.75 0.62 0.50 0.49 0.53 0.58 0.64 0.67 0.78 0.78 0.68 0.63 0.64 0.60 0.60 0.62 0.57 0.63 0.68 0.65 0.67 0.55 0.56
0.57 0.87 0.97 0.93 0.82 0.85 0.88 0.82 0.80 0.80 0.71 0.69 0.58 0.51 0.52 0.47 0.39 0.52 0.55 0.70 0.70 0.59 0.65 0.71 0.67 0.70 0.76 0.74 0.78 0.82 0.78 0.70 0.64 0.60 0.58 0.61 0.61 0.45 0.31 0.40 0.57 0.45 0.42 0.37

GFSNW_prec_precacc_141.txt.gz
Total_Precipitation_Accumulation
1.54 1.32 1.11 1.10 1.10 1.30 1.98 2.35 1.74 0.78 0.66 1.67 1.28 0.47 0.07 0.02 0.03 0.10 0.25 0.28 0.43 0.68 0.49 0.55 0.63 0.41 0.40 0.13 0.03 0.04 0.11 0.84 0.68 0.26 0.12 0.18 0.27 0.23 0.32 0.70 0.51 0.52 1.27 1.82
2.07 1.71 1.47 1.28 1.25 1.36 2.23 2.95 1.80 1.71 1.02 0.96 0.57 0.21 0.05 0.02 0.01 0.03 0.16 0.23 0.55 0.68 0.81 0.99 1.13 0.58 0.19 0.05 0.03 0.14 0.24 0.75 0.39 0.45 0.61 0.31 0.23 0.27 0.40 0.54 0.82 1.23 1.51 1.62
1.91 1.98 2.05 2.16 2.16 2.06 2.58 3.07 2.56 3.35 2.85 0.93 0.21 0.19 0.10 0.03 0.01 0.01 0.08 0.30 0.59 0.65 0.82 0.86 0.97 0.51 0.10 0.02 0.01 0.03 0.26 0.31 0.39 0.72 0.90 0.74 0.43 0.35 0.39 0.63 0.99 0.97 1.12 1.17
1.55 1.68 2.03 2.05 2.09 2.46 4.04 4.03 1.56 1.16 1.58 1.08 0.43 0.29 0.28 0.16 0.14 0.11 0.21 0.53 0.40 0.48 0.67 0.52 0.51 0.48 0.16 0.07 0.02 0.04 0.11 0.40 0.73 0.57 0.68 0.57 1.01 1.02 1.04 0.80 0.69 0.83 0.93 0.53
1.35 1.38 1.57 1.93 2.15 2.61 4.94 4.21 0.92 0.36 0.23 0.30 0.59 0.51 0.31 0.14 0.21 0.39 0.35 0.12 0.06 0.10 0.12 0.34 0.32 0.37 0.30 0.25 0.11 0.10 0.10 0.29 0.72 1.37 0.87 0.38 0.85 1.03 0.87 0.58 0.68 0.72 0.46 0.49
1.31 1.23 1.29 1.59 2.16 3.70 5.98 3.41 0.65 0.62 0.58 0.35 0.69 0.69 0.31 0.22 0.21 0.17 0.07 0.03 0.04 0.04 0.02 0.03 0.13 0.09 0.06 0.12 0.16 0.16 0.17 0.22 0.26 0.56 0.44 0.21 0.56 0.82 0.48 0.28 0.24 0.25 0.24 0.33
1.25 1.35 1.30 1.36 1.72 3.33 3.90 2.13 0.60 1.07 1.04 0.48 0.23 0.13 0.13 0.16 0.09 0.15 0.07 0.06 0.05 0.04 0.02 0.09 0.23 0.13 0.05 0.17 0.14 0.21 0.24 0.23 0.28 0.37 0.25 0.65 0.89 0.38 0.23 0.21 0.30 0.16 0.16 0.23
1.17 1.34 1.24 1.16 1.28 1.81 2.85 1.98 0.86 0.79 0.70 0.30 0.23 0.19 0.19 0.20 0.16 0.13 0.11 0.07 0.08 0.13 0.13 0.22 0.30 0.24 0.19 0.14 0.27 0.26 0.24 0.35 0.54 0.42 0.35 0.44 0.25 0.07 0.07 0.17 0.20 0.15 0.23 0.49
0.98 1.17 1.21 1.12 1.01 1.34 2.10 2.02 1.32 1.28 1.05 0.44 0.09 0.11 0.13 0.20 0.26 0.33 0.21 0.16 0.20 0.19 0.34 0.40 0.31 0.27 0.19 0.18 0.16 0.29 0.44 0.38 0.53 0.47 0.45 0.42 0.19 0.02 0.00 0.03 0.18 0.08 0.17 0.64
0.85 0.92 1.04 1.08 1.01 1.31 1.65 1.78 1.37 2.36 1.85 0.42 0.20 0.20 0.17 0.12 0.19 0.41 0.29 0.28 0.39 0.42 0.41 0.37 0.15 0.14 0.12 0.27 0.24 0.17 0.37 0.63 0.68 0.47 0.49 0.19 0.02 0.04 0.03 0.26 0.38 0.10 0.07 0.22
0.76 0.68 0.81 1.02 1.24 1.44 1.87 1.64 1.01 1.93 1.83 0.61 0.35 0.30 0.26 0.13 0.23 0.48 0.36 0.75 0.58 0.65 0.43 0.25 0.14 0.14 0.15 0.23 0.21 0.20 0.20 0.45 0.49 0.53 0.53 0.31 0.05 0.16 0.32 0.33 0.15 0.09 0.07 0.05
0.70 0.59 0.64 0.84 1.27 1.72 2.34 2.39 1.17 1.42 1.86 1.16 0.55 0.31 0.27 0.14 0.17 0.44 0.55 0.41 0.47 0.36 0.48 0.29 0.23 0.23 0.18 0.14 0.45 0.24 0.37 0.15 0.20 0.22 0.26 0.31 0.24 0.27 0.27 0.14 0.18 0.16 0.10 0.15
0.66 0.69 0.75 0.85 1.09 1.62 3.11 2.62 1.37 3.20 2.95 1.41 0.62 0.41 0.21 0.21 0.12 0.21 0.51 0.42 0.48 0.61 0.56 0.62 0.48 0.33 0.15 0.16 0.23 0.34 0.58 0.47 0.40 0.53 0.64 0.39 0.48 0.36 0.13 0.11 0.21 0.22 0.16 0.11
0.75 0.85 0.93 0.88 1.09 1.63 2.99 2.77 1.65 3.02 2.37 1.79 0.81 0.33 0.34 0.29 0.20 0.12 0.17 0.26 0.31 0.45 0.69 0.57 0.49 0.31 0.13 0.12 0.24 0.31 0.30 0.57 0.74 0.94 0.81 0.63 0.72 0.73 0.57 0.40 0.18 0.15 0.17 0.14
0.80 0.94 0.93 1.16 1.42 2.14 2.83 2.25 1.64 1.84 1.92 1.73 1.03 0.35 0.33 0.34 0.35 0.21 0.20 0.27 0.32 0.49 0.83 0.79 0.42 0.27 0.22 0.21 0.47 0.40 0.18 0.44 0.83 1.32 1.04 0.91 0.90 0.50 0.36 0.31 0.27 0.15 0.07 0.04
0.79 0.89 1.20 1.54 2.10 3.12 3.96 5.29 2.96 1.42 1.81 2.11 1.45 0.77 0.33 0.38 0.47 0.39 0.25 0.28 0.44 0.62 0.70 0.68 0.52 0.34 0.72 0.72 0.68 0.36 0.17 0.22 0.34 0.60 0.92 0.88 0.73 0.47 0.26 0.17 0.09 0.03 0.01 0.01
0.97 1.21 1.44 1.93 2.66 2.43 2.09 2.42 1.51 1.06 1.91 2.61 1.62 1.25 0.47 0.42 0.63 0.69 0.55 0.54 0.67 0.67 0.75 0.50 0.33 0.38 0.77 1.08 0.82 0.46 0.30 0.31 0.39 0.40 0.47 0.37 0.23 0.15 0.07 0.02 0.01 0.02 0.01 0.01
1.30 1.65 1.93 2.57 2.89 2.51 1.76 0.82 0.77 0.94 1.97 1.56 1.31 1.38 1.20 0.77 0.81 1.05 0.85 1.02 0.93 0.97 0.78 0.47 0.41 0.50 0.70 0.81 0.28 0.07 0.11 0.15 0.19 0.22 0.19 0.20 0.14 0.05 0.03 0.02 0.03 0.04 0.07 0.13
1.80 2.15 3.22 4.45 4.03 3.42 1.68 1.15 1.09 1.22 1.75 1.18 0.64 1.09 1.65 1.34 1.00 1.03 1.23 1.03 1.27 0.85 0.59 0.38 0.68 0.72 0.89 0.48 0.08 0.03 0.02 0.02 0.02 0.03 0.05 0.09 0.09 0.07 0.04 0.04 0.06 0.13 0.29 0.25
2.63 3.63 4.84 5.46 2.90 1.57 1.98 3.26 2.80 2.40 1.57 0.78 0.49 0.65 1.54 1.77 1.52 0.94 1.34 1.34 1.03 1.03 0.51 0.56 0.64 0.74 0.51 0.16 0.05 0.02 0.01 0.00 0.01 0.01 0.02 0.04 0.10 0.13 0.15 0.22 0.29 0.31 0.27 0.17
3.79 4.31 4.04 3.03 2.16 1.82 2.65 2.95 2.19 1.51 0.76 0.38 0.44 0.51 1.04 1.46 1.51 1.12 1.09 1.36 1.07 0.78 0.80 0.90 0.91 0.53 0.33 0.19 0.11 0.04 0.01 0.01 0.01 0.02 0.03 0.07 0.15 0.31 0.32 0.22 0.16 0.13 0.12 0.14
2.84 2.85 3.00 3.57 3.16 2.61 2.52 2.04 1.25 0.56 0.42 0.27 0.31 0.37 0.62 1.40 1.70 1.58 1.45 1.49 1.31 0.84 0.80 1.04 0.85 0.53 0.18 0.11 0.10 0.07 0.05 0.05 0.06 0.12 0.19 0.23 0.26 0.23 0.18 0.15 0.15 0.17 0.18 0.21
2.42 2.49 2.97 3.33 2.90 2.42 1.70 1.04 0.58 0.38 0.49 0.22 0.33 0.39 0.62 0.95 1.52 2.02 1.31 1.51 1.69 1.05 1.04 0.88 0.59 0.40 0.28 0.31 0.30 0.33 0.32 0.29 0.27 0.21 0.17 0.15 0.13 0.10 0.11 0.15 0.21 0.24 0.32 0.45
2.26 2.45 2.49 2.22 1.86 1.33 0.96 0.59 0.38 0.35 0.30 0.27 0.60 0.36 0.54 0.76 1.16 1.73 1.50 1.52 1.27 1.48 0.89 0.65 0.65 0.74 0.71 0.47 0.36 0.33 0.41 0.43 0.43 0.44 0.41 0.41 0.41 0.48 0.55 0.62 0.73 0.68 0.88 1.13
1.48 1.44 1.39 1.13 1.22 1.01 0.84 0.72 0.59 0.54 0.49 0.59 0.83 0.86 0.88 0.99 1.31 1.17 0.96 0.92 0.81 0.66 0.74 0.72 0.72 0.77 0.60 0.49 0.51 0.54 0.60 0.62 0.61 0.62 0.62 0.72 0.75 0.68 0.84 0.96 0.93 0.78 0.79 0.80
0.80 0.85 1.07 1.01 0.90 0.88 0.81 0.82 0.83 0.79 0.83 0.84 0.94 0.94 0.79 0.87 0.76 0.59 0.55 0.54 0.62 0.75 0.62 0.50 0.49 0.53 0.58 0.64 0.67 0.78 0.78 0.68 0.63 0.64 0.60 0.60 0.62 0.57 0.63 0.68 0.65 0.67 0.55 0.56
0.57 0.88 0.98 0.93 0.82 0.85 0.88 0.82 0.80 0.80 0.71 0.69 0.58 0.51 0.52 0.47 0.39 0.52 0.55 0.70 0.70 0.59 0.65 0.71 0.67 0.70 0.76 0.74 0.78 0.82 0.78 0.70 0.64 0.60 0.58 0.61 0.61 0.45 0.31 0.40 0.57 0.45 0.42 0.37

GFSNW_prec_precacc_144.txt.gz
Total_Precipitation_Accumulation
1.56 1.32 1.12 1.10 1.10 1.31 2.00 2.36 1.74 0.78 0.66 1.67 1.29 0.47 0.07 0.02 0.03 0.10 0.25 0.28 0.43 0.68 0.49 0.55 0.63 0.41 0.40 0.13 0.03 0.04 0.11 0.84 0.68 0.26 0.12 0.18 0.27 0.23 0.32 0.74 0.53 0.53 1.27 1.82
2.09 1.72 1.47 1.28 1.26 1.38 2.25 2.96 1.80 1.72 1.03 0.96 0.58 0.21 0.05 0.02 0.01 0.03 0.16 0.23 0.55 0.68 0.81 0.99 1.13 0.58 0.19 0.05 0.03 0.14 0.24 0.75 0.39 0.45 0.61 0.31 0.23 0.27 0.42 0.58 0.89 1.28 1.53 1.62
1.93 2.00 2.05 2.16 2.16 2.09 2.60 3.08 2.57 3.38 2.88 0.94 0.21 0.19 0.10 0.03 0.01 0.01 0.08 0.30 0.59 0.65 0.82 0.86 0.97 0.51 0.10 0.02 0.01 0.03 0.27 0.32 0.39 0.72 0.90 0.74 0.43 0.35 0.40 0.70 1.15 1.05 1.14 1.17
1.56 1.68 2.03 2.05 2.09 2.48 4.07 4.06 1.56 1.17 1.62 1.12 0.44 0.29 0.28 0.16 0.14 0.11 0.21 0.53 0.40 0.48 0.67 0.52 0.51 0.48 0.16 0.07 0.02 0.05 0.14 0.40 0.73 0.57 0.68 0.58 1.03 1.03 1.05 0.83 0.74 0.91 0.96 0.54
1.36 1.39 1.57 1.93 2.15 2.64 4.98 4.24 0.93 0.37 0.23 0.30 0.60 0.52 0.32 0.14 0.21 0.39 0.35 0.12 0.06 0.10 0.12 0.34 0.32 0.37 0.30 0.25 0.11 0.11 0.12 0.30 0.74 1.39 0.87 0.39 0.87 1.04 0.89 0.61 0.70 0.74 0.47 0.49
1.32 1.25 1.29 1.59 2.17 3.73 6.01 3.46 0.68 0.63 0.59 0.35 0.70 0.69 0.32 0.22 0.21 0.17 0.07 0.03 0.04 0.04 0.02 0.03 0.13 0.09 0.06 0.13 0.18 0.18 0.19 0.24 0.31 0.61 0.45 0.25 0.60 0.82 0.48 0.28 0.24 0.25 0.24 0.33
1.28 1.37 1.30 1.36 1.74 3.35 3.90 2.15 0.66 1.14 1.07 0.48 0.23 0.13 0.13 0.16 0.09 0.15 0.07 0.07 0.07 0.04 0.03 0.10 0.24 0.13 0.06 0.17 0.15 0.22 0.24 0.28 0.40 0.45 0.27 0.67 0.90 0.38 0.23 0.21 0.30 0.16 0.16 0.23
1.20 1.36 1.25 1.16 1.29 1.85 2.86 1.99 0.90 0.87 0.76 0.31 0.24 0.19 0.20 0.20 0.17 0.15 0.14 0.09 0.08 0.14 0.19 0.31 0.38 0.33 0.23 0.15 0.27 0.27 0.24 0.39 0.66 0.49 0.38 0.44 0.25 0.07 0.07 0.17 0.20 0.15 0.23 0.49
1.02 1.19 1.22 1.12 1.01 1.38 2.12 2.04 1.34 1.35 1.12 0.45 0.09 0.11 0.13 0.21 0.30 0.36 0.22 0.16 0.20 0.23 0.43 0.45 0.35 0.32 0.23 0.18 0.16 0.29 0.44 0.40 0.61 0.51 0.47 0.42 0.19 0.02 0.00 0.03 0.18 0.08 0.17 0.64
0.89 0.94 1.05 1.08 1.02 1.33 1.68 1.79 1.38 2.44 1.94 0.43 0.20 0.20 0.18 0.13 0.24 0.47 0.30 0.28 0.40 0.46 0.51 0.42 0.16 0.15 0.12 0.27 0.25 0.18 0.39 0.69 0.76 0.52 0.54 0.20 0.02 0.04 0.03 0.26 0.38 0.10 0.07 0.22
0.81 0.72 0.82 1.03 1.25 1.48 1.92 1.66 1.02 2.00 1.95 0.63 0.35 0.30 0.28 0.15 0.24 0.52 0.37 0.76 0.59 0.69 0.49 0.27 0.15 0.14 0.15 0.23 0.21 0.20 0.21 0.47 0.52 0.62 0.61 0.32 0.05 0.16 0.32 0.33 0.15 0.09 0.07 0.05
0.75 0.63 0.67 0.86 1.30 1.75 2.39 2.43 1.18 1.44 1.98 1.22 0.57 0.32 0.28 0.15 0.18 0.45 0.55 0.42 0.47 0.37 0.50 0.30 0.23 0.23 0.18 0.14 0.46 0.24 0.38 0.15 0.20 0.23 0.27 0.31 0.24 0.27 0.27 0.14 0.18 0.16 0.10 0.15
0.68 0.71 0.76 0.88 1.12 1.65 3.16 2.65 1.37 3.30 3.08 1.46 0.62 0.41 0.21 0.22 0.14 0.22 0.53 0.42 0.48 0.61 0.56 0.62 0.48 0.33 0.15 0.16 0.23 0.34 0.58 0.47 0.40 0.53 0.64 0.39 0.48 0.36 0.13 0.11 0.21 0.22 0.16 0.11
0.76 0.86 0.94 0.91 1.11 1.67 3.03 2.79 1.65 3.18 2.56 1.85 0.82 0.33 0.34 0.29 0.21 0.13 0.19 0.27 0.31 0.45 0.69 0.57 0.49 0.31 0.13 0.13 0.24 0.31 0.31 0.58 0.74 0.94 0.81 0.63 0.72 0.73 0.57 0.40 0.18 0.15 0.17 0.14
0.81 0.94 0.94 1.19 1.45 2.20 2.89 2.27 1.65 1.93 2.13 1.83 1.04 0.35 0.33 0.34 0.36 0.23 0.21 0.28 0.33 0.50 0.87 0.83 0.42 0.27 0.22 0.22 0.47 0.40 0.18 0.44 0.83 1.32 1.04 0.91 0.90 0.50 0.36 0.31 0.27 0.15 0.07 0.04
0.79 0.89 1.22 1.59 2.15 3.19 4.12 5.45 3.01 1.48 1.99 2.24 1.54 0.81 0.33 0.38 0.47 0.39 0.26 0.28 0.46 0.64 0.75 0.71 0.52 0.34 0.72 0.72 0.68 0.36 0.17 0.22 0.34 0.60 0.92 0.88 0.73 0.47 0.26 0.17 0.09 0.03 0.01 0.01
0.97 1.22 1.47 1.99 2.78 2.60 2.30 2.52 1.54 1.07 2.04 2.72 1.68 1.27 0.47 0.42 0.63 0.69 0.56 0.54 0.68 0.67 0.75 0.50 0.33 0.38 0.77 1.08 0.82 0.46 0.30 0.31 0.39 0.40 0.47 0.37 0.23 0.15 0.07 0.02 0.01 0.02 0.01 0.01
1.31 1.69 2.07 2.81 3.18 2.82 1.92 0.86 0.79 0.96 2.04 1.58 1.33 1.39 1.20 0.77 0.81 1.05 0.85 1.02 0.93 0.97 0.78 0.47 0.41 0.50 0.70 0.81 0.28 0.07 0.11 0.15 0.19 0.22 0.19 0.20 0.14 0.05 0.03 0.02 0.03 0.04 0.07 0.13
1.88 2.37 3.59 4.79 4.29 3.62 1.78 1.19 1.11 1.24 1.79 1.23 0.64 1.09 1.65 1.34 1.00 1.03 1.23 1.03 1.27 0.85 0.59 0.38 0.68 0.72 0.89 0.48 0.08 0.03 0.02 0.02 0.02 0.03 0.05 0.09 0.09 0.07 0.04 0.04 0.06 0.13 0.29 0.25
2.88 3.88 5.07 5.68 2.98 1.62 2.02 3.31 2.86 2.45 1.57 0.78 0.49 0.65 1.54 1.77 1.52 0.94 1.34 1.34 1.03 1.03 0.51 0.56 0.64 0.74 0.51 0.16 0.05 0.02 0.01 0.00 0.01 0.01 0.02 0.04 0.10 0.13 0.15 0.22 0.29 0.31 0.27 0.17
3.95 4.42 4.15 3.08 2.17 1.86 2.66 2.96 2.19 1.51 0.76 0.38 0.44 0.51 1.04 1.46 1.51 1.12 1.09 1.36 1.07 0.78 0.80 0.90 0.91 0.53 0.33 0.19 0.11 0.04 0.01 0.01 0.01 0.02 0.03 0.07 0.15 0.31 0.32 0.22 0.16 0.13 0.12 0.14
2.88 2.93 3.02 3.57 3.16 2.61 2.52 2.04 1.25 0.56 0.42 0.27 0.31 0.37 0.62 1.40 1.70 1.58 1.45 1.49 1.31 0.84 0.80 1.04 0.85 0.53 0.18 0.11 0.10 0.07 0.05 0.05 0.06 0.12 0.19 0.23 0.26 0.23 0.18 0.15 0.15 0.17 0.18 0.21
2.44 2.52 2.97 3.33 2.90 2.42 1.70 1.04 0.58 0.38 0.49 0.22 0.33 0.39 0.62 0.95 1.52 2.02 1.31 1.51 1.69 1.05 1.04 0.88 0.59 0.40 0.28 0.31 0.30 0.33 0.32 0.29 0.27 0.21 0.17 0.15 0.13 0.10 0.11 0.15 0.21 0.24 0.32 0.45
2.26 2.45 2.49 2.22 1.86 1.33 0.96 0.59 0.38 0.35 0.30 0.27 0.60 0.36 0.54 0.76 1.16 1.73 1.50 1.52 1.27 1.48 0.89 0.65 0.65 0.74 0.71 0.47 0.36 0.33 0.41 0.43 0.43 0.44 0.41 0.41 0.41 0.48 0.55 0.62 0.73 0.68 0.88 1.13
1.48 1.44 1.39 1.13 1.23 1.01 0.84 0.72 0.59 0.54 0.49 0.59 0.83 0.86 0.88 0.99 1.31 1.17 0.96 0.92 0.81 0.66 0.74 0.72 0.72 0.77 0.60 0.49 0.51 0.54 0.60 0.62 0.61 0.62 0.62 0.72 0.75 0.68 0.84 0.96 0.93 0.78 0.79 0.80
0.80 0.85 1.07 1.01 0.90 0.89 0.81 0.82 0.83 0.79 0.83 0.84 0.94 0.94 0.79 0.87 0.76 0.59 0.55 0.54 0.62 0.75 0.62 0.50 0.49 0.53 0.58 0.64 0.67 0.78 0.78 0.68 0.63 0.64 0.60 0.60 0.62 0.57 0.63 0.68 0.65 0.67 0.55 0.56
0.57 0.89 0.98 0.93 0.82 0.86 0.88 0.82 0.80 0.80 0.71 0.69 0.58 0.51 0.52 0.47 0.39 0.52 0.55 0.70 0.70 0.59 0.65 0.71 0.67 0.70 0.76 0.74 0.78 0.82 0.78 0.70 0.64 0.60 0.58 0.61 0.61 0.45 0.31 0.40 0.57 0.45 0.42 0.37

GFSNW_prec_precacc_147.txt.gz
Total_Precipitation_Accumulation
1.57 1.34 1.13 1.10 1.10 1.32 2.01 2.36 1.74 0.78 0.66 1.67 1.29 0.47 0.07 0.02 0.03 0.10 0.25 0.28 0.43 0.68 0.49 0.55 0.63 0.41 0.40 0.13 0.03 0.04 0.11 0.84 0.68 0.26 0.12 0.18 0.27 0.23 0.33 0.76 0.56 0.56 1.29 1.83
2.10 1.74 1.49 1.28 1.26 1.39 2.25 2.96 1.80 1.72 1.03 0.96 0.58 0.21 0.05 0.02 0.01 0.03 0.16 0.23 0.55 0.68 0.81 0.99 1.13 0.58 0.19 0.05 0.03 0.14 0.24 0.75 0.39 0.45 0.61 0.31 0.23 0.27 0.45 0.60 0.92 1.33 1.63 1.65
1.95 2.01 2.07 2.17 2.17 2.09 2.61 3.09 2.57 3.40 2.90 0.94 0.21 0.19 0.10 0.03 0.01 0.01 0.08 0.30 0.59 0.65 0.82 0.86 0.97 0.51 0.10 0.02 0.01 0.03 0.28 0.32 0.39 0.72 0.90 0.74 0.43 0.35 0.43 0.75 1.22 1.09 1.17 1.18
1.59 1.71 2.05 2.06 2.11 2.51 4.10 4.07 1.56 1.17 1.63 1.13 0.44 0.29 0.28 0.16 0.14 0.11 0.21 0.53 0.40 0.48 0.67 0.52 0.51 0.48 0.16 0.07 0.02 0.05 0.15 0.41 0.73 0.57 0.68 0.58 1.03 1.03 1.05 0.83 0.75 0.94 0.96 0.55
1.38 1.41 1.58 1.94 2.16 2.68 5.01 4.25 0.94 0.37 0.23 0.30 0.60 0.52 0.32 0.14 0.21 0.39 0.35 0.12 0.06 0.10 0.12 0.34 0.32 0.38 0.31 0.25 0.11 0.13 0.14 0.31 0.74 1.39 0.87 0.39 0.87 1.05 0.89 0.61 0.70 0.74 0.47 0.49
1.33 1.26 1.32 1.61 2.19 3.75 6.02 3.46 0.68 0.63 0.60 0.35 0.70 0.69 0.32 0.22 0.21 0.17 0.07 0.03 0.04 0.06 0.02 0.03 0.13 0.09 0.06 0.13 0.18 0.18 0.20 0.26 0.33 0.62 0.45 0.25 0.61 0.82 0.48 0.28 0.24 0.25 0.24 0.33
1.28 1.37 1.31 1.38 1.76 3.36 3.91 2.16 0.67 1.17 1.09 0.49 0.23 0.13 0.13 0.16 0.09 0.15 0.07 0.07 0.09 0.05 0.03 0.12 0.25 0.14 0.07 0.19 0.16 0.22 0.25 0.30 0.46 0.50 0.31 0.70 0.90 0.38 0.23 0.21 0.30 0.16 0.16 0.23
1.20 1.36 1.25 1.17 1.30 1.87 2.86 2.01 0.92 0.92 0.83 0.33 0.25 0.19 0.20 0.20 0.17 0.15 0.14 0.10 0.09 0.17 0.26 0.41 0.43 0.33 0.24 0.15 0.27 0.27 0.25 0.40 0.69 0.54 0.42 0.45 0.25 0.07 0.07 0.17 0.20 0.15 0.23 0.49
1.03 1.19 1.22 1.12 1.03 1.42 2.14 2.05 1.36 1.40 1.19 0.48 0.10 0.12 0.14 0.22 0.30 0.36 0.22 0.16 0.20 0.31 0.56 0.53 0.40 0.32 0.24 0.19 0.16 0.29 0.44 0.41 0.64 0.58 0.52 0.43 0.19 0.02 0.00 0.03 0.18 0.08 0.17 0.64
0.90 0.95 1.05 1.09 1.03 1.37 1.71 1.82 1.40 2.48 2.02 0.44 0.20 0.22 0.18 0.14 0.27 0.51 0.30 0.28 0.42 0.54 0.63 0.53 0.18 0.15 0.12 0.28 0.25 0.18 0.40 0.72 0.81 0.56 0.60 0.21 0.02 0.04 0.03 0.26 0.38 0.10 0.07 0.22
0.81 0.75 0.85 1.03 1.27 1.51 1.95 1.69 1.04 2.03 2.02 0.64 0.36 0.31 0.30 0.17 0.29 0.60 0.40 0.82 0.64 0.78 0.60 0.32 0.17 0.14 0.15 0.23 0.21 0.20 0.21 0.50 0.56 0.64 0.65 0.33 0.05 0.16 0.32 0.33 0.15 0.09 0.07 0.05
0.76 0.66 0.77 0.91 1.32 1.78 2.43 2.46 1.20 1.48 2.02 1.23 0.57 0.33 0.28 0.16 0.20 0.53 0.64 0.47 0.47 0.38 0.51 0.30 0.23 0.23 0.18 0.14 0.46 0.24 0.38 0.15 0.20 0.23 0.27 0.31 0.24 0.27 0.27 0.14 0.18 0.16 0.10 0.15
0.71 0.78 0.86 1.00 1.16 1.70 3.19 2.68 1.40 3.37 3.17 1.49 0.62 0.41 0.21 0.23 0.19 0.32 0.65 0.44 0.51 0.62 0.56 0.62 0.48 0.33 0.15 0.16 0.23 0.34 0.58 0.47 0.40 0.53 0.64 0.39 0.48 0.36 0.13 0.11 0.21 0.22 0.16 0.11
0.77 0.91 1.04 0.97 1.14 1.70 3.08 2.83 1.67 3.22 2.66 1.92 0.82 0.33 0.34 0.29 0.23 0.19 0.24 0.29 0.31 0.47 0.71 0.59 0.50 0.31 0.13 0.13 0.24 0.31 0.31 0.58 0.74 0.94 0.81 0.63 0.72 0.73 0.57 0.40 0.18 0.15 0.17 0.14
0.82 0.95 0.99 1.22 1.47 2.23 2.93 2.29 1.66 1.96 2.17 1.90 1.06 0.35 0.33 0.34 0.36 0.24 0.27 0.32 0.38 0.57 0.92 0.88 0.42 0.27 0.22 0.22 0.47 0.40 0.18 0.44 0.83 1.32 1.04 0.91 0.90 0.50 0.36 0.31 0.27 0.15 0.07 0.04
0.81 0.91 1.24 1.61 2.19 3.26 4.21 5.58 3.03 1.48 2.00 2.34 1.58 0.83 0.33 0.38 0.47 0.41 0.30 0.35 0.54 0.74 0.83 0.75 0.52 0.34 0.72 0.72 0.68 0.36 0.17 0.22 0.34 0.60 0.92 0.88 0.73 0.47 0.26 0.17 0.09 0.03 0.01 0.01
0.98 1.23 1.48 2.02 2.87 2.69 2.35 2.56 1.54 1.09 2.08 2.89 1.74 1.30 0.48 0.43 0.69 0.78 0.64 0.62 0.78 0.76 0.80 0.53 0.33 0.38 0.77 1.08 0.82 0.46 0.30 0.31 0.39 0.40 0.47 0.37 0.23 0.15 0.07 0.02 0.01 0.02 0.01 0.01
1.32 1.70 2.07 2.83 3.24 2.90 1.96 0.86 0.82 1.06 2.17 1.67 1.38 1.42 1.23 0.81 0.87 1.09 0.89 1.08 1.01 1.00 0.78 0.47 0.41 0.50 0.70 0.81 0.28 0.07 0.11 0.15 0.19 0.22 0.19 0.20 0.14 0.05 0.03 0.02 0.03 0.04 0.07 0.13
1.88 2.38 3.63 4.89 4.41 3.70 1.80 1.25 1.26 1.42 1.95 1.32 0.68 1.10 1.66 1.35 1.01 1.03 1.23 1.04 1.27 0.85 0.59 0.38 0.68 0.72 0.89 0.48 0.08 0.03 0.02 0.02 0.02 0.03 0.05 0.09 0.09 0.07 0.04 0.04 0.06 0.13 0.29 0.25
2.90 3.97 5.22 5.80 3.03 1.70 2.18 3.59 3.25 2.82 1.72 0.79 0.50 0.65 1.54 1.77 1.52 0.94 1.34 1.34 1.03 1.03 0.51 0.56 0.64 0.74 0.51 0.16 0.05 0.02 0.01 0.00 0.01 0.01 0.02 0.04 0.10 0.13 0.15 0.22 0.29 0.31 0.27 0.17
4.07 4.58 4.33 3.24 2.34 2.05 2.79 3.08 2.33 1.63 0.78 0.38 0.44 0.51 1.04 1.46 1.51 1.12 1.09 1.36 1.07 0.78 0.80 0.90 0.91 0.53 0.33 0.19 0.11 0.04 0.01 0.01 0.01 0.02 0.03 0.07 0.15 0.31 0.32 0.22 0.16 0.13 0.12 0.14
3.05 3.17 3.21 3.75 3.28 2.64 2.53 2.04 1.25 0.56 0.42 0.27 0.31 0.37 0.62 1.40 1.70 1.58 1.45 1.49 1.31 0.84 0.80 1.04 0.85 0.53 0.18 0.11 0.10 0.07 0.05 0.05 0.06 0.12 0.19 0.23 0.26 0.23 0.18 0.15 0.15 0.17 0.18 0.21
2.69 2.63 3.00 3.35 2.91 2.42 1.70 1.04 0.58 0.38 0.49 0.22 0.33 0.39 0.62 0.95 1.52 2.02 1.31 1.51 1.69 1.05 1.04 0.88 0.59 0.40 0.28 0.31 0.30 0.33 0.32 0.29 0.27 0.21 0.17 0.15 0.13 0.10 0.11 0.15 0.21 0.24 0.32 0.45
2.33 2.46 2.49 2.22 1.86 1.33 0.96 0.59 0.38 0.35 0.30 0.27 0.60 0.36 0.54 0.76 1.16 1.73 1.50 1.52 1.27 1.48 0.89 0.65 0.65 0.74 0.71 0.47 0.36 0.33 0.41 0.43 0.43 0.44 0.41 0.41 0.41 0.48 0.55 0.62 0.73 0.68 0.88 1.13
1.49 1.44 1.39 1.13 1.23 1.01 0.84 0.72 0.59 0.54 0.49 0.59 0.83 0.86 0.88 0.99 1.31 1.17 0.96 0.92 0.81 0.66 0.74 0.72 0.72 0.77 0.60 0.49 0.51 0.54 0.60 0.62 0.61 0.62 0.62 0.72 0.75 0.68 0.84 0.96 0.93 0.78 0.79 0.80
0.80 0.85 1.07 1.01 0.90 0.89 0.81 0.82 0.83 0.79 0.83 0.84 0.94 0.94 0.79 0.87 0.76 0.59 0.55 0.54 0.62 0.75 0.62 0.50 0.49 0.53 0.58 0.64 0.67 0.78 0.78 0.68 0.63 0.64 0.60 0.60 0.62 0.57 0.63 0.68 0.65 0.67 0.55 0.56
0.57 0.89 0.98 0.93 0.83 0.86 0.90 0.83 0.81 0.80 0.71 0.69 0.58 0.51 0.52 0.47 0.39 0.52 0.55 0.70 0.70 0.60 0.66 0.71 0.67 0.70 0.76 0.74 0.78 0.82 0.78 0.70 0.64 0.60 0.58 0.61 0.61 0.45 0.31 0.40 0.57 0.45 0.42 0.37

GFSNW_prec_precacc_153.txt.gz
Total_Precipitation_Accumulation
1.58 1.34 1.14 1.11 1.10 1.33 2.04 2.38 1.75 0.79 0.67 1.68 1.30 0.47 0.07 0.02 0.03 0.10 0.25 0.28 0.43 0.68 0.49 0.55 0.63 0.41 0.40 0.13 0.03 0.04 0.11 0.84 0.68 0.26 0.12 0.18 0.27 0.23 0.35 0.86 0.65 0.68 1.44 1.89
2.12 1.75 1.49 1.30 1.27 1.39 2.28 2.97 1.81 1.74 1.05 0.97 0.58 0.21 0.05 0.02 0.01 0.03 0.16 0.23 0.55 0.68 0.81 0.99 1.13 0.58 0.19 0.05 0.03 0.14 0.24 0.75 0.39 0.45 0.61 0.32 0.23 0.28 0.47 0.66 1.00 1.41 1.74 1.70
2.00 2.02 2.07 2.18 2.18 2.10 2.64 3.10 2.59 3.43 2.94 0.95 0.21 0.19 0.10 0.03 0.01 0.01 0.08 0.30 0.59 0.65 0.82 0.86 0.97 0.51 0.10 0.02 0.01 0.03 0.28 0.32 0.39 0.72 0.91 0.77 0.46 0.36 0.45 0.83 1.35 1.18 1.24 1.21
1.64 1.76 2.06 2.06 2.12 2.52 4.13 4.09 1.57 1.18 1.65 1.15 0.45 0.29 0.28 0.16 0.14 0.11 0.21 0.53 0.40 0.48 0.67 0.52 0.51 0.48 0.16 0.07 0.02 0.05 0.16 0.41 0.73 0.57 0.68 0.59 1.03 1.03 1.05 0.84 0.76 0.97 0.98 0.56
1.42 1.47 1.62 1.94 2.16 2.73 5.08 4.28 0.95 0.37 0.23 0.30 0.61 0.53 0.32 0.14 0.21 0.39 0.35 0.12 0.06 0.10 0.12 0.34 0.32 0.38 0.31 0.26 0.12 0.13 0.16 0.33 0.76 1.40 0.88 0.40 0.88 1.05 0.89 0.61 0.70 0.74 0.47 0.49
1.50 1.32 1.35 1.62 2.20 3.79 6.09 3.52 0.71 0.64 0.60 0.36 0.71 0.70 0.32 0.22 0.21 0.17 0.07 0.03 0.04 0.06 0.02 0.03 0.13 0.09 0.06 0.13 0.18 0.19 0.20 0.26 0.34 0.63 0.46 0.27 0.62 0.82 0.48 0.28 0.24 0.25 0.25 0.33
1.65 1.54 1.37 1.38 1.77 3.38 3.94 2.18 0.70 1.19 1.11 0.50 0.24 0.13 0.13 0.16 0.09 0.15 0.07 0.07 0.09 0.05 0.03 0.12 0.25 0.14 0.07 0.19 0.16 0.22 0.26 0.31 0.48 0.52 0.36 0.76 0.90 0.38 0.23 0.21 0.30 0.16 0.16 0.23
1.41 1.56 1.30 1.17 1.31 1.89 2.91 2.05 0.94 0.96 0.85 0.34 0.26 0.19 0.20 0.21 0.17 0.15 0.15 0.10 0.09 0.17 0.32 0.49 0.47 0.34 0.25 0.15 0.27 0.27 0.26 0.43 0.75 0.59 0.45 0.46 0.25 0.07 0.07 0.17 0.20 0.15 0.23 0.49
1.10 1.33 1.27 1.13 1.03 1.44 2.19 2.11 1.41 1.46 1.25 0.51 0.11 0.13 0.15 0.24 0.31 0.37 0.23 0.16 0.21 0.32 0.65 0.63 0.47 0.33 0.25 0.20 0.17 0.30 0.46 0.46 0.72 0.64 0.60 0.46 0.20 0.02 0.00 0.03 0.19 0.08 0.17 0.64
0.92 1.01 1.09 1.10 1.06 1.41 1.77 1.88 1.44 2.56 2.11 0.46 0.22 0.25 0.22 0.18 0.30 0.53 0.31 0.30 0.47 0.60 0.75 0.66 0.23 0.17 0.13 0.30 0.29 0.20 0.41 0.78 0.89 0.61 0.68 0.24 0.02 0.04 0.03 0.27 0.41 0.10 0.07 0.22
0.82 0.76 0.86 1.05 1.30 1.57 2.02 1.75 1.11 2.13 2.09 0.66 0.37 0.31 0.31 0.19 0.33 0.63 0.44 0.90 0.71 0.91 0.76 0.43 0.25 0.17 0.18 0.25 0.23 0.24 0.23 0.55 0.61 0.69 0.73 0.37 0.05 0.16 0.32 0.34 0.15 0.09 0.07 0.05
0.78 0.67 0.77 0.92 1.35 1.84 2.50 2.51 1.26 1.62 2.18 1.27 0.58 0.33 0.28 0.16 0.20 0.58 0.74 0.55 0.55 0.49 0.63 0.39 0.31 0.29 0.23 0.16 0.48 0.26 0.42 0.17 0.26 0.28 0.32 0.34 0.24 0.27 0.27 0.14 0.18 0.16 0.10 0.15
0.73 0.79 0.87 1.04 1.22 1.76 3.26 2.74 1.44 3.45 3.34 1.55 0.63 0.41 0.21 0.23 0.19 0.37 0.82 0.51 0.57 0.73 0.63 0.73 0.61 0.42 0.20 0.22 0.26 0.37 0.60 0.47 0.43 0.56 0.65 0.39 0.48 0.36 0.13 0.11 0.21 0.22 0.16 0.11
0.78 0.93 1.07 1.07 1.25 1.82 3.18 2.90 1.71 3.25 2.72 1.97 0.82 0.33 0.34 0.29 0.23 0.20 0.27 0.34 0.38 0.53 0.86 0.79 0.61 0.40 0.17 0.17 0.28 0.35 0.35 0.61 0.78 0.96 0.82 0.64 0.73 0.73 0.57 0.40 0.18 0.15 0.17 0.14
0.84 0.98 1.02 1.33 1.57 2.39 3.09 2.38 1.71 1.98 2.21 1.97 1.06 0.35 0.33 0.34 0.37 0.25 0.30 0.42 0.50 0.70 1.05 1.06 0.51 0.31 0.25 0.25 0.49 0.40 0.18 0.45 0.87 1.38 1.07 0.93 0.92 0.50 0.36 0.31 0.27 0.15 0.07 0.04
0.84 0.93 1.26 1.67 2.29 3.47 4.55 5.96 3.22 1.54 2.06 2.41 1.60 0.83 0.33 0.38 0.47 0.43 0.35 0.45 0.78 0.99 0.99 0.84 0.58 0.37 0.77 0.78 0.71 0.36 0.17 0.22 0.35 0.61 0.92 0.88 0.73 0.47 0.26 0.17 0.09 0.03 0.01 0.01
1.01 1.26 1.51 2.05 3.00 2.88 2.63 2.69 1.58 1.10 2.10 2.98 1.77 1.30 0.48 0.43 0.71 0.83 0.77 0.82 1.02 0.98 0.99 0.64 0.38 0.41 0.82 1.15 0.84 0.47 0.30 0.31 0.39 0.40 0.47 0.37 0.23 0.15 0.07 0.02 0.01 0.02 0.01 0.01
1.35 1.74 2.12 2.89 3.46 3.12 2.04 0.88 0.83 1.15 2.29 1.75 1.43 1.44 1.26 0.84 0.98 1.22 1.05 1.29 1.25 1.26 0.97 0.54 0.45 0.54 0.76 0.86 0.28 0.07 0.11 0.15 0.19 0.22 0.19 0.20 0.14 0.05 0.03 0.02 0.03 0.04 0.07 0.13
1.94 2.44 3.72 5.02 4.58 3.82 1.83 1.25 1.28 1.53 2.15 1.52 0.73 1.11 1.71 1.40 1.13 1.19 1.36 1.18 1.42 0.94 0.64 0.40 0.71 0.81 0.94 0.49 0.08 0.03 0.02 0.02 0.02 0.03 0.05 0.09 0.09 0.07 0.04 0.04 0.06 0.13 0.29 0.25
2.93 3.99 5.24 5.84 3.04 1.71 2.21 3.67 3.44 3.11 2.00 0.92 0.54 0.67 1.58 1.83 1.64 1.06 1.39 1.35 1.05 1.05 0.53 0.57 0.66 0.75 0.51 0.16 0.05 0.02 0.01 0.00 0.01 0.01 0.02 0.04 0.10 0.13 0.15 0.22 0.29 0.31 0.27 0.17
4.08 4.60 4.35 3.30 2.44 2.19 2.97 3.33 2.50 1.78 0.95 0.42 0.44 0.51 1.06 1.49 1.58 1.18 1.11 1.37 1.07 0.79 0.81 0.90 0.92 0.53 0.33 0.19 0.11 0.04 0.01 0.01 0.01 0.02 0.03 0.07 0.15 0.31 0.32 0.22 0.16 0.13 0.12 0.14
3.07 3.25 3.36 4.06 3.59 2.85 2.68 2.20 1.33 0.62 0.47 0.28 0.32 0.38 0.64 1.47 1.72 1.62 1.46 1.50 1.31 0.84 0.81 1.05 0.85 0.53 0.18 0.11 0.10 0.07 0.05 0.05 0.06 0.12 0.19 0.23 0.26 0.23 0.18 0.15 0.15 0.17 0.18 0.21
2.83 2.83 3.20 3.55 3.03 2.51 1.75 1.08 0.61 0.42 0.50 0.23 0.34 0.42 0.68 1.02 1.57 2.04 1.31 1.51 1.69 1.05 1.04 0.88 0.59 0.40 0.28 0.31 0.30 0.33 0.32 0.29 0.27 0.21 0.17 0.15 0.13 0.10 0.11 0.15 0.21 0.24 0.32 0.45
2.46 2.52 2.58 2.30 1.89 1.34 0.97 0.60 0.39 0.35 0.31 0.27 0.61 0.42 0.59 0.78 1.18 1.74 1.50 1.52 1.27 1.48 0.89 0.65 0.65 0.74 0.71 0.47 0.36 0.33 0.41 0.43 0.43 0.44 0.41 0.41 0.41 0.48 0.55 0.62 0.73 0.68 0.88 1.13
1.56 1.47 1.43 1.14 1.24 1.01 0.84 0.72 0.59 0.54 0.49 0.59 0.85 0.89 0.89 1.00 1.31 1.17 0.96 0.93 0.81 0.66 0.74 0.72 0.72 0.77 0.60 0.49 0.51 0.54 0.60 0.62 0.61 0.62 0.62 0.72 0.75 0.68 0.84 0.96 0.93 0.78 0.79 0.80
0.83 0.87 1.09 1.03 0.92 0.90 0.82 0.83 0.84 0.79 0.83 0.85 0.95 0.94 0.80 0.87 0.76 0.59 0.55 0.54 0.62 0.75 0.62 0.51 0.49 0.53 0.58 0.64 0.67 0.78 0.78 0.68 0.63 0.64 0.60 0.60 0.62 0.57 0.63 0.68 0.65 0.67 0.55 0.56
0.60 0.91 1.00 0.94 0.85 0.89 0.91 0.84 0.81 0.80 0.72 0.70 0.58 0.51 0.52 0.47 0.39 0.52 0.55 0.70 0.70 0.60 0.66 0.72 0.67 0.70 0.76 0.74 0.78 0.82 0.78 0.70 0.64 0.60 0.58 0.61 0.61 0.45 0.31 0.40 0.57 0.45 0.42 0.37